Regional Weather Roundup
Issued by NWS Bismarck, ND

Home | Current Version | Previous Version | Text Only | Print | Product List | Glossary On
Versions: 1 2 3 4 5 6 7 8 9 10 11 12 13 14 15 16 17 18 19 20 21 22 23 24 25 26 27 28 29 30 31 32 33 34 35 36 37 38 39 40 41 42 43 44 45 46 47 48 49 50
000
ASUS43 KBIS 301410
RWRBIS

NWR BROADCAST TEXT
NATIONAL WEATHER SERVICE BISMARCK ND
900 AM CDT THU JUL 30 2015

NOTE: "FAIR" INDICATES FEW OR NO CLOUDS BELOW 12,000 FEET WITH NO
SIGNIFICANT WEATHER AND/OR OBSTRUCTIONS TO VISIBILITY.


CITY           SKY/WX    TMP DP  RH WIND       PRES   REMARKS
WILLISTON      SUNNY     64  54  69 NE5       30.18R
MINOT          SUNNY     69  51  52 W15       30.11R
MINOT AFB      SUNNY     69  57  65 NW14      30.10R
BISMARCK       SUNNY     65  50  58 W7        30.15S
DICKINSON      SUNNY     65  48  54 W10       30.17S
GARRISON         N/A     63  55  75 W6        30.14R
HETTINGER ARPT SUNNY     65  49  56 NW5       30.21S
JAMESTOWN      SUNNY     68  56  65 NW9       30.11R
BEACH          FAIR      64  45  48 SW6       30.21S
CROSBY         FAIR      64  57  77 W12       30.16R
HARVEY         FAIR      64  57  77 W7        30.10S
HAZEN          FAIR      63  50  63 W6        30.16R
LINTON         FAIR      64  57  77 N7        30.16R
MANDAN         FAIR      66  50  55 CALM      30.16S
OAKES            N/A     68  57  68 W8        30.11R
STANLEY        FAIR      63  57  82 W9G15     30.17R
$$

CITY           SKY/WX    TMP DP  RH WIND       PRES   REMARKS
GRAND FORKS    PTSUNNY   68  56  65 W10       30.00R
GRAND FORKS AF PTSUNNY   68  56  66 NW9       30.01S
DEVILS LAKE    MOSUNNY   68  52  56 W14       30.04S
FARGO          MOSUNNY   70  57  63 W12       30.04R
CAVALIER       FAIR      68  55  64 W12       29.97S
GRAFTON        FAIR      68  57  68 W16G22    29.99S
GWINNER        FAIR      66  55  68 W9        30.10R
LANGDON        FAIR      66  55  68 W17G24    30.03R
ROLLA          FAIR      66  54  63 NW14G20   30.06S
WALHALLA       FAIR      66  57  72 MISG      29.98R
$$

CITY           SKY/WX    TMP DP  RH WIND       PRES   REMARKS
ABERDEEN       SUNNY     66  57  72 CALM      30.12R
MOBRIDGE       SUNNY     68  59  73 CALM      30.13S
BUFFALO          N/A     65  47  52 SW5       30.17R
RAPID CITY     SUNNY     68  47  46 W8        30.25R
GLASGOW        SUNNY     62  54  74 CALM      30.19R
SIDNEY         SUNNY     63  54  72 CALM      30.18R
WOLF POINT     SUNNY     62  54  74 CALM      30.19R
GLENDIVE       SUNNY     63  50  63 S6        30.19S
MILES CITY     SUNNY     64  47  53 CALM      30.22R
BAKER          SUNNY     72  42  34 W8        30.22R
$$

CITY           SKY/WX    TMP DP  RH WIND       PRES   REMARKS
BILLINGS       SUNNY     60  41  49 SW14      30.30R
GREAT FALLS    SUNNY     62  43  49 SW12      30.28S
REGINA         MOSUNNY   61  55  82 W9        30.14R
ESTEVAN        SUNNY     63  54  72 NW14      30.13R
$$



USA.gov is the U.S. government's official web portal to all federal, state and local government web resources and services.